| time (UTC) | temp F | wind direction | speed knots | gust knots | rain 1hr in | rain 24hr in | rain mn in | humidity % | barometer mb |
| 20260509024001 | 67 | 29 | 3.5 | 5.2 | 0.00 | 0.00 | 0.00 | 42 | 1028.2 |
| 20260509023022 | 66 | 78 | 4.3 | 8.7 | 0.00 | 0.00 | 0.00 | 44 | 1028.2 |
| 20260509022002 | 66 | 24 | 2.6 | 6.1 | 0.00 | 0.00 | 0.00 | 45 | 1028.4 |
| 20260509021001 | 65 | 11 | 3.5 | 7.8 | 0.00 | 0.00 | 0.00 | 46 | 1028.4 |
| 20260509020001 | 64 | 65 | 2.6 | 7.0 | 0.00 | 0.00 | 0.00 | 47 | 1028.5 |
| 20260509015001 | 63 | 28 | 6.1 | 12.2 | 0.00 | 0.00 | 0.00 | 46 | 1028.7 |
| 20260509014001 | 63 | 25 | 3.5 | 8.7 | 0.00 | 0.00 | 0.00 | 47 | 1028.7 |
| 20260509013002 | 62 | 4 | 3.5 | 7.0 | 0.00 | 0.00 | 0.00 | 48 | 1028.8 |
| 20260509012002 | 62 | 28 | 4.3 | 8.7 | 0.00 | 0.00 | 0.00 | 49 | 1028.8 |
| 20260509011002 | 61 | 20 | 7.0 | 13.0 | 0.00 | 0.00 | 0.00 | 49 | 1028.9 |
| 20260509010002 | 61 | 86 | 4.3 | 7.8 | 0.00 | 0.00 | 0.00 | 50 | 1029.0 |
| 20260509005022 | 60 | 20 | 5.2 | 7.8 | 0.00 | 0.00 | 0.00 | 50 | 1029.0 |
| 20260509004001 | 60 | 50 | 2.6 | 7.0 | 0.00 | 0.00 | 0.00 | 50 | 1029.0 |
| 20260509003001 | 60 | 27 | 3.5 | 7.8 | 0.00 | 0.00 | 0.00 | 51 | 1028.8 |
| 20260509002001 | 59 | 29 | 3.5 | 7.0 | 0.00 | 0.00 | 0.00 | 52 | 1028.8 |
| 20260509001001 | 59 | 49 | 1.7 | 4.3 | 0.00 | 0.00 | 0.00 | 53 | 1028.8 |
| 20260509000001 | 58 | 23 | 3.5 | 7.0 | 0.00 | 0.00 | 0.00 | 54 | 1028.7 |
| 20260508235001 | 57 | 37 | 3.5 | 6.1 | 0.00 | 0.00 | 0.00 | 55 | 1028.6 |
| 20260508234001 | 56 | 89 | 3.5 | 7.8 | 0.00 | 0.00 | 0.00 | 56 | 1028.5 |
| 20260508233022 | 56 | 69 | 2.6 | 5.2 | 0.00 | 0.00 | 0.00 | 56 | 1028.5 |
| 20260508232023 | 56 | 72 | 1.7 | 5.2 | 0.00 | 0.00 | 0.00 | 56 | 1028.6 |
| 20260508231001 | 56 | 28 | 1.7 | 5.2 | 0.00 | 0.00 | 0.00 | 56 | 1028.5 |
| 20260508230001 | 56 | 58 | 2.6 | 6.1 | 0.00 | 0.00 | 0.00 | 56 | 1028.4 |
| 20260508225022 | 57 | 5 | 2.6 | 5.2 | 0.00 | 0.00 | 0.00 | 55 | 1028.4 |
| 20260508224001 | 57 | 18 | 2.6 | 5.2 | 0.00 | 0.00 | 0.00 | 54 | 1028.2 |
| 20260508223002 | 57 | 22 | 2.6 | 6.1 | 0.00 | 0.00 | 0.00 | 54 | 1028.1 |
| 20260508222002 | 57 | 16 | 2.6 | 5.2 | 0.00 | 0.00 | 0.00 | 53 | 1028.1 |
| 20260508221022 | 58 | 29 | 2.6 | 6.1 | 0.00 | 0.00 | 0.00 | 53 | 1028.0 |
| 20260508220002 | 58 | 12 | 1.7 | 4.3 | 0.00 | 0.00 | 0.00 | 52 | 1028.0 |
| 20260508215001 | 58 | 33 | 5.2 | 10.4 | 0.00 | 0.00 | 0.00 | 52 | 1027.9 |
| 20260508214001 | 58 | 40 | 3.5 | 7.0 | 0.00 | 0.00 | 0.00 | 52 | 1027.8 |
| 20260508213002 | 59 | 32 | 3.5 | 7.0 | 0.00 | 0.00 | 0.00 | 52 | 1027.7 |
| 20260508212001 | 59 | 25 | 4.3 | 7.0 | 0.00 | 0.00 | 0.00 | 51 | 1027.5 |
| 20260508211002 | 59 | 55 | 2.6 | 5.2 | 0.00 | 0.00 | 0.00 | 51 | 1027.5 |
| 20260508205022 | 59 | 27 | 2.6 | 12.2 | 0.00 | 0.00 | 0.00 | 50 | 1027.3 |
| 20260508204001 | 59 | 63 | 3.5 | 7.0 | 0.00 | 0.00 | 0.00 | 51 | 1027.2 |
| 20260508203001 | 59 | 76 | 2.6 | 5.2 | 0.00 | 0.00 | 0.00 | 51 | 1027.3 |
| 20260508202023 | 59 | 32 | 2.6 | 5.2 | 0.00 | 0.00 | 0.00 | 51 | 1027.3 |
| 20260508201001 | 59 | 97 | 2.6 | 5.2 | 0.00 | 0.00 | 0.00 | 50 | 1027.3 |
| 20260508200023 | 59 | 18 | 1.7 | 4.3 | 0.00 | 0.00 | 0.00 | 50 | 1027.3 |
| 20260508195001 | 59 | 6 | 1.7 | 5.2 | 0.00 | 0.00 | 0.00 | 50 | 1027.1 |
| 20260508194001 | 59 | 26 | 2.6 | 6.1 | 0.00 | 0.00 | 0.00 | 50 | 1027.1 |
| 20260508193022 | 60 | 59 | 2.6 | 7.0 | 0.00 | 0.00 | 0.00 | 49 | 1027.1 |
| 20260508192001 | 60 | 30 | 1.7 | 5.2 | 0.00 | 0.00 | 0.00 | 49 | 1027.1 |
| 20260508191001 | 60 | 64 | 1.7 | 2.6 | 0.00 | 0.00 | 0.00 | 49 | 1027.0 |
| 20260508190002 | 60 | 33 | 1.7 | 2.6 | 0.00 | 0.00 | 0.00 | 49 | 1027.1 |
| 20260508185002 | 60 | 79 | 2.6 | 5.2 | 0.00 | 0.00 | 0.00 | 48 | 1027.0 |
| 20260508184002 | 61 | 132 | 1.7 | 4.3 | 0.00 | 0.00 | 0.00 | 48 | 1027.1 |
| 20260508183001 | 61 | 69 | 3.5 | 7.0 | 0.00 | 0.00 | 0.00 | 47 | 1027.1 |
| 20260508182001 | 61 | 93 | 3.5 | 7.0 | 0.00 | 0.00 | 0.00 | 47 | 1027.1 |
| 20260508181023 | 61 | 53 | 3.5 | 8.7 | 0.00 | 0.00 | 0.00 | 47 | 1027.0 |
| 20260508180001 | 61 | 26 | 2.6 | 6.1 | 0.00 | 0.00 | 0.00 | 47 | 1027.0 |
| 20260508175001 | 61 | 52 | 2.6 | 5.2 | 0.00 | 0.00 | 0.00 | 47 | 1027.0 |
| 20260508174001 | 62 | 36 | 2.6 | 4.3 | 0.00 | 0.00 | 0.00 | 46 | 1026.9 |
| 20260508173001 | 62 | 61 | 3.5 | 7.8 | 0.00 | 0.00 | 0.00 | 45 | 1026.9 |
| 20260508172022 | 62 | 81 | 4.3 | 7.0 | 0.00 | 0.00 | 0.00 | 45 | 1027.0 |
| 20260508171001 | 62 | 28 | 3.5 | 7.0 | 0.00 | 0.00 | 0.00 | 45 | 1027.1 |
| 20260508170001 | 62 | 54 | 6.1 | 10.4 | 0.00 | 0.00 | 0.00 | 45 | 1027.0 |
| 20260508165001 | 63 | 45 | 2.6 | 5.2 | 0.00 | 0.00 | 0.00 | 45 | 1027.0 |
| 20260508164001 | 63 | 27 | 3.5 | 7.8 | 0.00 | 0.00 | 0.00 | 45 | 1026.9 |
| 20260508163001 | 63 | 57 | 1.7 | 4.3 | 0.00 | 0.00 | 0.00 | 45 | 1026.9 |
| 20260508162002 | 62 | 29 | 4.3 | 8.7 | 0.00 | 0.00 | 0.00 | 45 | 1026.8 |
| 20260508161001 | 63 | 57 | 2.6 | 6.1 | 0.00 | 0.00 | 0.00 | 45 | 1026.8 |
| 20260508160001 | 63 | 205 | 1.7 | 4.3 | 0.00 | 0.00 | 0.00 | 43 | 1026.8 |
| 20260508155002 | 63 | 50 | 3.5 | 6.1 | 0.00 | 0.00 | 0.00 | 43 | 1026.8 |
| 20260508154001 | 64 | 33 | 3.5 | 7.0 | 0.00 | 0.00 | 0.00 | 42 | 1026.9 |
| 20260508153002 | 64 | 101 | 2.6 | 5.2 | 0.00 | 0.00 | 0.00 | 42 | 1026.8 |
| 20260508152023 | 64 | 45 | 2.6 | 7.0 | 0.00 | 0.00 | 0.00 | 42 | 1026.8 |
| 20260508151002 | 64 | 35 | 1.7 | 5.2 | 0.00 | 0.00 | 0.00 | 42 | 1026.8 |
| 20260508150002 | 64 | 10 | 0.9 | 1.7 | 0.00 | 0.00 | 0.00 | 41 | 1026.9 |
| 20260508145001 | 64 | 2 | 1.7 | 5.2 | 0.00 | 0.00 | 0.00 | 41 | 1026.9 |
| 20260508144001 | 64 | 6 | 0.9 | 2.6 | 0.00 | 0.00 | 0.00 | 41 | 1027.0 |
| 20260508143001 | 64 | 75 | 0.9 | 4.3 | 0.00 | 0.00 | 0.00 | 41 | 1027.0 |
| 20260508141022 | 65 | 73 | 3.5 | 6.1 | 0.00 | 0.00 | 0.00 | 40 | 1027.1 |
| 20260508140002 | 65 | 44 | 2.6 | 8.7 | 0.00 | 0.00 | 0.00 | 41 | 1027.1 |
| 20260508135022 | 66 | 38 | 1.7 | 5.2 | 0.00 | 0.00 | 0.00 | 41 | 1027.1 |
| 20260508134001 | 65 | 35 | 2.6 | 5.2 | 0.00 | 0.00 | 0.00 | 42 | 1027.1 |
| 20260508132001 | 65 | 60 | 1.7 | 4.3 | 0.00 | 0.00 | 0.00 | 44 | 1027.1 |
| 20260508131001 | 64 | 28 | 2.6 | 6.1 | 0.00 | 0.00 | 0.00 | 45 | 1027.1 |
| 20260508130003 | 64 | 36 | 0.9 | 1.7 | 0.00 | 0.00 | 0.00 | 47 | 1027.1 |
| 20260508125001 | 63 | 130 | 0.9 | 0.9 | 0.00 | 0.00 | 0.00 | 48 | 1027.0 |
| 20260508124022 | 64 | 92 | 1.7 | 2.6 | 0.00 | 0.00 | 0.00 | 47 | 1027.0 |
| 20260508123002 | 64 | 73 | 0.9 | 2.6 | 0.00 | 0.00 | 0.00 | 46 | 1026.9 |
| 20260508122001 | 65 | 58 | 0.9 | 1.7 | 0.00 | 0.00 | 0.00 | 47 | 1026.8 |
| 20260508121003 | 64 | 82 | 1.7 | 2.6 | 0.00 | 0.00 | 0.00 | 46 | 1026.9 |
| 20260508120002 | 64 | 20 | 0.9 | 2.6 | 0.00 | 0.00 | 0.00 | 47 | 1027.0 |
| 20260508115001 | 64 | 87 | 1.7 | 2.6 | 0.00 | 0.00 | 0.00 | 47 | 1026.9 |
| 20260508114001 | 64 | 88 | 0.9 | 1.7 | 0.00 | 0.00 | 0.00 | 48 | 1026.9 |
| 20260508113001 | 65 | 101 | 0.9 | 0.9 | 0.00 | 0.00 | 0.00 | 47 | 1026.9 |
| 20260508112023 | 65 | 159 | 0.9 | 1.7 | 0.00 | 0.00 | 0.00 | 47 | 1026.9 |
| 20260508111002 | 66 | 70 | 0.9 | 1.7 | 0.00 | 0.00 | 0.00 | 46 | 1026.9 |
| 20260508110002 | 66 | 87 | 3.5 | 5.2 | 0.00 | 0.00 | 0.00 | 45 | 1026.9 |
| 20260508105001 | 66 | 112 | 0.9 | 0.9 | 0.00 | 0.00 | 0.00 | 44 | 1027.0 |
| 20260508104002 | 67 | 83 | 2.6 | 5.2 | 0.00 | 0.00 | 0.00 | 44 | 1027.0 |
| 20260508103003 | 67 | 73 | 1.7 | 2.6 | 0.00 | 0.00 | 0.00 | 44 | 1026.8 |
| 20260508102001 | 68 | 95 | 1.7 | 2.6 | 0.00 | 0.00 | 0.00 | 43 | 1026.8 |
| 20260508101001 | 68 | 87 | 3.5 | 6.1 | 0.00 | 0.00 | 0.00 | 42 | 1026.8 |
| 20260508100001 | 69 | 84 | 5.2 | 8.7 | 0.00 | 0.00 | 0.00 | 42 | 1026.7 |
| 20260508095001 | 69 | 80 | 3.5 | 7.0 | 0.00 | 0.00 | 0.00 | 41 | 1026.7 |
| 20260508094002 | 69 | 71 | 3.5 | 7.0 | 0.00 | 0.00 | 0.00 | 41 | 1026.6 |
| 20260508093001 | 70 | 80 | 4.3 | 7.8 | 0.00 | 0.00 | 0.00 | 41 | 1026.5 |
| 20260508092002 | 70 | 75 | 2.6 | 6.1 | 0.00 | 0.00 | 0.00 | 40 | 1026.4 |
| 20260508091023 | 71 | 80 | 3.5 | 10.4 | 0.00 | 0.00 | 0.00 | 40 | 1026.4 |
| 20260508090001 | 71 | 74 | 3.5 | 7.0 | 0.00 | 0.00 | 0.00 | 39 | 1026.3 |
| 20260508085001 | 71 | 83 | 4.3 | 8.7 | 0.00 | 0.00 | 0.00 | 39 | 1026.2 |
| 20260508084002 | 71 | 77 | 3.5 | 5.2 | 0.00 | 0.00 | 0.00 | 39 | 1026.2 |
| 20260508083002 | 72 | 83 | 3.5 | 6.1 | 0.00 | 0.00 | 0.00 | 39 | 1026.2 |
| 20260508082002 | 72 | 69 | 3.5 | 7.8 | 0.00 | 0.00 | 0.00 | 39 | 1026.2 |
| 20260508081001 | 72 | 81 | 5.2 | 11.3 | 0.00 | 0.00 | 0.00 | 38 | 1026.2 |
| 20260508080001 | 73 | 90 | 3.5 | 7.8 | 0.00 | 0.00 | 0.00 | 37 | 1026.2 |
| 20260508075001 | 73 | 54 | 2.6 | 6.1 | 0.00 | 0.00 | 0.00 | 38 | 1026.2 |
| 20260508074022 | 73 | 75 | 4.3 | 7.0 | 0.00 | 0.00 | 0.00 | 39 | 1026.2 |
| 20260508073001 | 73 | 60 | 3.5 | 6.1 | 0.00 | 0.00 | 0.00 | 39 | 1026.2 |
| 20260508072001 | 73 | 20 | 6.1 | 10.4 | 0.00 | 0.00 | 0.00 | 38 | 1026.2 |
| 20260508071001 | 73 | 66 | 3.5 | 7.8 | 0.00 | 0.00 | 0.00 | 38 | 1026.2 |
| 20260508070001 | 73 | 75 | 4.3 | 7.8 | 0.00 | 0.00 | 0.00 | 39 | 1026.2 |
| 20260508065022 | 73 | 79 | 7.0 | 12.2 | 0.00 | 0.00 | 0.00 | 38 | 1026.3 |
| 20260508064002 | 73 | 77 | 4.3 | 7.0 | 0.00 | 0.00 | 0.00 | 38 | 1026.4 |
| 20260508063001 | 73 | 72 | 4.3 | 7.0 | 0.00 | 0.00 | 0.00 | 38 | 1026.4 |
| 20260508062001 | 73 | 90 | 5.2 | 10.4 | 0.00 | 0.00 | 0.00 | 40 | 1026.5 |
| 20260508061002 | 73 | 81 | 4.3 | 7.0 | 0.00 | 0.00 | 0.00 | 40 | 1026.6 |
| 20260508060002 | 73 | 84 | 5.2 | 8.7 | 0.00 | 0.00 | 0.00 | 39 | 1026.8 |
| 20260508055022 | 73 | 69 | 5.2 | 10.4 | 0.00 | 0.00 | 0.00 | 40 | 1026.9 |
| 20260508054022 | 73 | 81 | 6.1 | 11.3 | 0.00 | 0.00 | 0.00 | 41 | 1026.9 |
| 20260508053001 | 72 | 79 | 4.3 | 6.1 | 0.00 | 0.00 | 0.00 | 42 | 1026.9 |
| 20260508052023 | 72 | 75 | 3.5 | 6.1 | 0.00 | 0.00 | 0.00 | 43 | 1027.0 |
| 20260508051001 | 72 | 41 | 2.6 | 6.1 | 0.00 | 0.00 | 0.00 | 43 | 1027.3 |
| 20260508050002 | 71 | 77 | 5.2 | 8.7 | 0.00 | 0.00 | 0.00 | 44 | 1027.5 |
| 20260508045001 | 71 | 67 | 4.3 | 10.4 | 0.00 | 0.00 | 0.00 | 45 | 1027.5 |
| 20260508044022 | 71 | 39 | 2.6 | 6.1 | 0.00 | 0.00 | 0.00 | 45 | 1027.7 |
| 20260508043002 | 70 | 96 | 2.6 | 6.1 | 0.00 | 0.00 | 0.00 | 47 | 1027.9 |
| 20260508042002 | 70 | 84 | 6.1 | 10.4 | 0.00 | 0.00 | 0.00 | 47 | 1028.2 |
| 20260508041002 | 70 | 80 | 3.5 | 7.0 | 0.00 | 0.00 | 0.00 | 47 | 1028.5 |
| 20260508040001 | 70 | 29 | 6.1 | 11.3 | 0.00 | 0.00 | 0.00 | 47 | 1028.6 |
| 20260508035001 | 70 | 80 | 5.2 | 10.4 | 0.00 | 0.00 | 0.00 | 47 | 1028.9 |
| 20260508034002 | 69 | 62 | 3.5 | 11.3 | 0.00 | 0.00 | 0.00 | 48 | 1029.0 |
| 20260508033023 | 69 | 99 | 3.5 | 8.7 | 0.00 | 0.00 | 0.00 | 48 | 1029.2 |
| 20260508032001 | 68 | 189 | 3.5 | 11.3 | 0.00 | 0.00 | 0.00 | 49 | 1029.5 |
| 20260508031001 | 68 | 11 | 4.3 | 7.8 | 0.00 | 0.00 | 0.00 | 50 | 1029.6 |
| 20260508030002 | 68 | 29 | 4.3 | 7.8 | 0.00 | 0.00 | 0.00 | 50 | 1029.8 |
| 20260508025002 | 68 | 37 | 5.2 | 10.4 | 0.00 | 0.00 | 0.00 | 51 | 1029.9 |